User: anonymous   Login
Location: Beuerbach
(48.1459°N, 10.9174°E)
Time: 18:34:23
(UTC+00:00)
Language:

Cosmos 2221 Rocket - Orbit

View from above orbital plane
View from above orbital plane
View from above satellite
View from above satellite

Ground track
Ground track

The orbit data is extracted from the following two-line orbital elements,

1 22237U 92080B   24204.56654737  .00000870  00000-0  11329-3 0  9994
2 22237  82.5097 225.3186 0019491  10.2433 349.9173 14.79397119706418
Epoch (UTC): 22 July 2024 13:35:49
Eccentricity: 0.0019491
inclination: 82.5097°
perigee height: 617 km
apogee height: 645 km
right ascension of ascending node: 225.3186°
argument of perigee: 10.2433°
revolutions per day: 14.79397119
mean anomaly at epoch: 349.9173°
orbit number at epoch: 70641

The dashed part of the orbit path shows where the satellite is in the earth's shadow,  

DLR